TimeCST,TemperatureF,Dew PointF,Humidity,Sea Level PressureIn,VisibilityMPH,Wind Direction,Wind SpeedMPH,Gust SpeedMPH,PrecipitationIn,Events,Conditions,WindDirDegrees,DateUTC
12:55 AM,-4.0,-8.0,83,30.26,10.0,WNW,6.9,-,N/A,,Clear,290,2012-12-10 06:55:00
1:55 AM,-5.1,-9.0,83,30.24,10.0,WNW,6.9,-,N/A,,Clear,300,2012-12-10 07:55:00
2:55 AM,-7.1,-11.0,83,30.23,10.0,West,5.8,-,N/A,,Clear,280,2012-12-10 08:55:00
3:55 AM,-7.1,-11.9,79,30.19,10.0,Calm,Calm,-,N/A,,Clear,0,2012-12-10 09:55:00
4:55 AM,-6.0,-11.0,79,30.15,9.0,ESE,3.5,-,N/A,,Clear,120,2012-12-10 10:55:00
5:55 AM,-9.0,-11.9,87,30.14,8.0,Calm,Calm,-,N/A,,Clear,0,2012-12-10 11:55:00
6:55 AM,-9.0,-13.0,83,30.13,10.0,SE,3.5,-,N/A,,Clear,140,2012-12-10 12:55:00
7:55 AM,-8.0,-11.9,83,30.11,9.0,SE,3.5,-,N/A,,Clear,130,2012-12-10 13:55:00
8:55 AM,-7.1,-9.9,87,30.07,7.0,SE,6.9,-,N/A,,Clear,140,2012-12-10 14:55:00
9:55 AM,-0.9,-5.1,83,30.06,5.0,SSE,9.2,-,N/A,,Clear,150,2012-12-10 15:55:00
10:55 AM,1.0,-2.9,83,30.06,8.0,SSE,9.2,-,N/A,,Clear,160,2012-12-10 16:55:00
11:55 AM,3.9,-0.0,84,30.01,10.0,SSE,9.2,-,N/A,,Clear,160,2012-12-10 17:55:00
12:55 PM,7.0,1.9,80,29.97,10.0,South,9.2,-,N/A,,Clear,170,2012-12-10 18:55:00
1:55 PM,9.0,3.0,77,29.93,10.0,South,12.7,-,0.01,,Mostly Cloudy,170,2012-12-10 19:55:00
2:55 PM,12.0,6.1,77,29.90,10.0,South,9.2,-,N/A,,Overcast,180,2012-12-10 20:55:00
3:55 PM,14.0,7.0,74,29.89,10.0,South,11.5,18.4,N/A,,Overcast,190,2012-12-10 21:55:00
4:55 PM,15.1,8.1,74,29.88,10.0,South,6.9,-,0.00,,Overcast,190,2012-12-10 22:55:00
5:55 PM,15.1,9.0,77,29.90,10.0,SSW,6.9,-,N/A,,Overcast,200,2012-12-10 23:55:00
6:55 PM,14.0,9.0,80,29.90,10.0,SSW,5.8,-,N/A,,Scattered Clouds,200,2012-12-11 00:55:00
7:55 PM,14.0,9.0,80,29.90,10.0,Calm,Calm,-,N/A,,Overcast,0,2012-12-11 01:55:00
8:55 PM,19.0,12.9,77,29.90,10.0,West,5.8,-,N/A,,Overcast,260,2012-12-11 02:55:00
9:55 PM,21.9,16.0,78,29.90,10.0,WNW,11.5,-,N/A,,Mostly Cloudy,300,2012-12-11 03:55:00
10:55 PM,21.9,17.1,82,29.89,10.0,WNW,8.1,-,N/A,,Overcast,290,2012-12-11 04:55:00
11:55 PM,24.1,19.9,84,29.89,10.0,West,10.4,-,N/A,,Overcast,280,2012-12-11 05:55:00